Location: Mainz-Finthen
(49.9906°N, 8.1713°E)
Time: 09:20:55
(UTC+00:00)

BEESAT - Pass Details

Date: 07 December 2021
Orbit: 699 x 708 km, 98.6° (Epoch: 21 January)

Event Time Altitude Azimuth Distance (km) Brightness Sun altitude
Rises 05:21:27 0° 139° (SE) 3,088 ? -16.7°
Reaches altitude 10° 05:23:49 10° 131° (SE) 2,175 ? -16.4°
Maximum altitude 05:28:11 37° 65° (ENE) 1,100 ? -15.7°
Drops below altitude 10° 05:32:35 10° 359° (N) 2,193 ? -15.0°
Sets 05:34:58 0° 352° (N) 3,118 ? -14.6°
